This is the latest recevied weather packets stored in our database for station/object K5RWS. If no packets are shown the sender has not sent any weather packets the latest 10 day(s).
| Time | Temp. | Humidity | Pressure | Rain* | Wind** | Luminosity | Snow |
|---|---|---|---|---|---|---|---|
| 1777120000 | 12.78° C | 23% | 1014.5 hPa | 0 mm | - | 4 W/m² | - |
| 1777119698 | 12.22° C | 23% | 1014.5 hPa | 0 mm | - | 2 W/m² | - |
| 1777119392 | 12.22° C | 23% | 1014.5 hPa | 0 mm | - | 1 W/m² | - |
| 1777119087 | 12.78° C | 22% | 1014.5 hPa | 0 mm | - | 0 W/m² | - |
| 1777118783 | 12.78° C | 23% | 1014.3 hPa | 0 mm | - | 0 W/m² | - |
| 1777118480 | 12.78° C | 22% | 1014.2 hPa | 0 mm | - | 0 W/m² | - |
| 1777118175 | 12.78° C | 22% | 1014.3 hPa | 0 mm | - | 0 W/m² | - |
| 1777117872 | 12.78° C | 22% | 1014.5 hPa | 0 mm | - | 0 W/m² | - |
| 1777117569 | 12.78° C | 22% | 1014.3 hPa | 0 mm | - | 0 W/m² | - |
| 1777117267 | 13.33° C | 22% | 1014.2 hPa | 0 mm | - | 0 W/m² | - |
| 1777116967 | 13.89° C | 22% | 1014.3 hPa | 0 mm | - | 0 W/m² | - |
| 1777116664 | 13.89° C | 21% | 1014.1 hPa | 0 mm | - | 0 W/m² | - |
| 1777116359 | 13.89° C | 22% | 1014.1 hPa | 0 mm | - | 0 W/m² | - |
| 1777116055 | 13.33° C | 22% | 1014.1 hPa | 0 mm | - | 0 W/m² | - |
| 1777115755 | 13.33° C | 22% | 1014 hPa | 0 mm | - | 0 W/m² | - |
| 1777115451 | 13.89° C | 21% | 1014.1 hPa | 0 mm | - | 0 W/m² | - |
| 1777115146 | 13.89° C | 21% | 1014 hPa | 0 mm | - | 0 W/m² | - |
| 1777114844 | 13.89° C | 21% | 1014.1 hPa | 0 mm | - | 0 W/m² | - |
| 1777114541 | 13.89° C | 21% | 1013.9 hPa | 0 mm | - | 0 W/m² | - |
| 1777114235 | 14.44° C | 21% | 1013.8 hPa | 0 mm | - | 0 W/m² | - |
| 1777113932 | 13.89° C | 21% | 1013.8 hPa | 0 mm | - | 0 W/m² | - |
| 1777113628 | 13.89° C | 21% | 1013.6 hPa | 0 mm | - | 0 W/m² | - |
| 1777113328 | 13.33° C | 22% | 1013.6 hPa | 0 mm | - | 0 W/m² | - |
| 1777113027 | 13.89° C | 20% | 1013.8 hPa | 0 mm | - | 0 W/m² | - |
| 1777112724 | 13.89° C | 20% | 1013.8 hPa | 0 mm | - | 0 W/m² | - |
* Rain latest hour (hover to see other rain measurements)
** Current wind speed in m/s (hover to see current wind gust speed)